When you browse on this site, cookies collect data to enhance your experience and personalize the content and advertising you see.
Visit our Privacy Policy to learn more. By continuing to use the site, you agree to this use of cookies and data.
  • In Romania
  • List of Countries
  • For 7 days
  • Water Temperature
  • Weather Map
  • Weather Widgets
  • user-avatar
    Login

    Hourly Weather Krasnyy Yar

    Today, 17 October, Thursday

    Time Temperature Precipitation Wind Pressure Humidity
    00:00 +7°C° 0 mm 6 mps 747 mmHg 74%
    01:00 +7°C° 0 mm 6 mps 747 mmHg 78%
    02:00 +7°C° 0 mm 5 mps 747 mmHg 81%
    03:00 +7°C° 0 mm 6 mps 747 mmHg 86%
    04:00 +7°C° 0 mm 5 mps 746 mmHg 88%
    05:00 +7°C° 0 mm 5 mps 746 mmHg 90%
    06:00 +7°C° 0 mm 5 mps 746 mmHg 92%
    07:00 +8°C° 0 mm 6 mps 746 mmHg 90%
    08:00 +8°C° 0 mm 6 mps 745 mmHg 89%
    09:00 +9°C° 0 mm 6 mps 746 mmHg 87%
    10:00 +10°C° 0 mm 6 mps 745 mmHg 82%
    11:00 +13°C° 0 mm 6 mps 745 mmHg 77%
    12:00 +14°C° 0 mm 6 mps 745 mmHg 73%
    13:00 +15°C° 0 mm 6 mps 745 mmHg 71%
    14:00 +16°C° 0 mm 6 mps 744 mmHg 70%
    15:00 +16°C° 0 mm 6 mps 744 mmHg 68%
    16:00 +15°C° 0 mm 6 mps 744 mmHg 72%
    17:00 +14°C° 0 mm 5 mps 743 mmHg 76%
    18:00 +13°C° 0 mm 5 mps 743 mmHg 81%
    19:00 +13°C° 0 mm 5 mps 743 mmHg 81%
    20:00 +12°C° 0 mm 5 mps 743 mmHg 81%
    21:00 +12°C° 0 mm 5 mps 743 mmHg 81%
    22:00 +11°C° 0 mm 4 mps 743 mmHg 82%
    23:00 +11°C° 0 mm 4 mps 743 mmHg 84%

    Tomorrow, 18 October, Friday

    Time Temperature Precipitation Wind Pressure Humidity
    00:00 +10°C° 0 mm 4 mps 743 mmHg 85%
    01:00 +10°C° 0 mm 4 mps 743 mmHg 87%
    02:00 +10°C° 0 mm 4 mps 743 mmHg 89%
    03:00 +8°C° 0 mm 4 mps 743 mmHg 92%
    04:00 +8°C° 0 mm 4 mps 743 mmHg 92%
    05:00 +8°C° 0 mm 4 mps 743 mmHg 93%
    06:00 +8°C° 0 mm 4 mps 743 mmHg 94%
    07:00 +8°C° 0 mm 4 mps 743 mmHg 93%
    08:00 +8°C° 0 mm 4 mps 744 mmHg 91%
    09:00 +10°C° 0 mm 4 mps 744 mmHg 90%
    10:00 +11°C° 0 mm 4 mps 744 mmHg 87%
    11:00 +12°C° 0 mm 4 mps 744 mmHg 83%
    12:00 +12°C° 0 mm 3 mps 744 mmHg 80%
    13:00 +13°C° 0 mm 3 mps 744 mmHg 79%
    14:00 +13°C° 0 mm 3 mps 744 mmHg 78%
    15:00 +13°C° 0 mm 3 mps 744 mmHg 77%
    16:00 +13°C° 0 mm 3 mps 744 mmHg 81%
    17:00 +13°C° 0 mm 2 mps 745 mmHg 84%
    18:00 +12°C° 0 mm 2 mps 745 mmHg 88%
    19:00 +12°C° 0 mm 2 mps 745 mmHg 88%
    20:00 +10°C° 0 mm 2 mps 745 mmHg 89%
    21:00 +10°C° 0 mm 2 mps 746 mmHg 90%
    22:00 +11°C° 0 mm 1 mps 746 mmHg 90%
    23:00 +10°C° 0 mm 1 mps 746 mmHg 90%

    Day after tomorrow, 19 October, Saturday

    Time Temperature Precipitation Wind Pressure Humidity
    00:00 +10°C° 0 mm 1 mps 746 mmHg 90%
    01:00 +10°C° 0 mm 1 mps 746 mmHg 90%
    02:00 +10°C° 0 mm 1 mps 746 mmHg 90%
    03:00 +10°C° 0 mm 1 mps 746 mmHg 90%
    04:00 +10°C° 0 mm 1 mps 747 mmHg 90%
    05:00 +9°C° 0 mm 1 mps 747 mmHg 91%
    06:00 +9°C° 0 mm 1 mps 747 mmHg 91%
    07:00 +10°C° 0 mm 1 mps 747 mmHg 89%
    08:00 +10°C° 0 mm 1 mps 747 mmHg 88%
    09:00 +11°C° 0 mm 1 mps 748 mmHg 86%
    10:00 +12°C° 0 mm 1 mps 748 mmHg 82%
    11:00 +13°C° 0 mm 2 mps 748 mmHg 77%
    12:00 +14°C° 0 mm 2 mps 748 mmHg 73%
    13:00 +15°C° 0 mm 2 mps 748 mmHg 72%
    14:00 +15°C° 0 mm 2 mps 748 mmHg 72%
    15:00 +15°C° 0 mm 2 mps 748 mmHg 71%
    16:00 +14°C° 0 mm 2 mps 748 mmHg 76%
    17:00 +13°C° 0 mm 2 mps 747 mmHg 81%
    18:00 +12°C° 0 mm 2 mps 747 mmHg 86%
    19:00 +12°C° 0 mm 2 mps 748 mmHg 87%
    20:00 +12°C° 0 mm 2 mps 748 mmHg 88%
    21:00 +10°C° 0 mm 2 mps 748 mmHg 90%
    22:00 +10°C° 0 mm 2 mps 748 mmHg 90%
    23:00 +10°C° 0 mm 2 mps 748 mmHg 91%

    20 October, Sunday

    Time Temperature Precipitation Wind Pressure Humidity
    00:00 +10°C° 0 mm 3 mps 748 mmHg 92%
    01:00 +10°C° 0 mm 3 mps 748 mmHg 92%
    02:00 +9°C° 0 mm 3 mps 748 mmHg 92%
    03:00 +9°C° 0 mm 3 mps 748 mmHg 92%
    04:00 +9°C° 0 mm 3 mps 748 mmHg 92%
    05:00 +9°C° 0 mm 3 mps 748 mmHg 92%
    06:00 +8°C° 0 mm 2 mps 748 mmHg 92%
    07:00 +9°C° 0 mm 3 mps 748 mmHg 89%
    08:00 +9°C° 0 mm 3 mps 748 mmHg 86%
    09:00 +10°C° 0 mm 3 mps 748 mmHg 83%
    10:00 +11°C° 0 mm 3 mps 748 mmHg 80%
    11:00 +12°C° 0 mm 3 mps 748 mmHg 76%
    12:00 +14°C° 0 mm 3 mps 748 mmHg 73%
    13:00 +14°C° 0 mm 4 mps 748 mmHg 72%
    14:00 +15°C° 0 mm 4 mps 748 mmHg 71%
    15:00 +15°C° 0 mm 4 mps 748 mmHg 70%
    16:00 +14°C° 0 mm 4 mps 748 mmHg 73%
    17:00 +13°C° 0 mm 3 mps 748 mmHg 77%
    18:00 +13°C° 0 mm 3 mps 748 mmHg 81%
    19:00 +12°C° 0 mm 3 mps 748 mmHg 81%
    20:00 +12°C° 0 mm 4 mps 748 mmHg 82%
    21:00 +12°C° 0 mm 4 mps 748 mmHg 82%
    22:00 +12°C° 0 mm 4 mps 748 mmHg 83%
    23:00 +11°C° 0 mm 4 mps 748 mmHg 84%

    21 October, Monday

    Time Temperature Precipitation Wind Pressure Humidity
    00:00 +11°C° 0 mm 4 mps 748 mmHg 85%
    01:00 +11°C° 0 mm 4 mps 748 mmHg 85%
    02:00 +11°C° 0 mm 3 mps 748 mmHg 86%
    03:00 +10°C° 0 mm 3 mps 747 mmHg 87%
    04:00 +10°C° 0 mm 3 mps 747 mmHg 87%
    05:00 +10°C° 0 mm 4 mps 747 mmHg 87%
    06:00 +8°C° 0 mm 4 mps 747 mmHg 88%
    07:00 +10°C° 0 mm 4 mps 747 mmHg 84%
    08:00 +11°C° 0 mm 4 mps 747 mmHg 81%
    09:00 +11°C° 0 mm 4 mps 747 mmHg 77%
    10:00 +12°C° 0 mm 5 mps 747 mmHg 72%
    11:00 +14°C° 0 mm 5 mps 747 mmHg 67%
    12:00 +15°C° 0 mm 5 mps 747 mmHg 62%
    13:00 +15°C° 0 mm 5 mps 747 mmHg 61%
    14:00 +16°C° 0 mm 5 mps 746 mmHg 60%
    15:00 +16°C° 0 mm 5 mps 746 mmHg 59%
    16:00 +15°C° 0 mm 5 mps 746 mmHg 63%
    17:00 +14°C° 0 mm 5 mps 746 mmHg 66%
    18:00 +13°C° 0 mm 4 mps 746 mmHg 70%
    19:00 +13°C° 0 mm 4 mps 745 mmHg 72%
    20:00 +12°C° 0 mm 4 mps 745 mmHg 75%
    21:00 +12°C° 0 mm 4 mps 745 mmHg 77%
    22:00 +12°C° 0 mm 4 mps 745 mmHg 78%
    23:00 +11°C° 0 mm 4 mps 745 mmHg 80%

    22 October, Tuesday

    Time Temperature Precipitation Wind Pressure Humidity
    00:00 +11°C° 0 mm 4 mps 745 mmHg 81%
    01:00 +11°C° 0 mm 4 mps 745 mmHg 82%
    02:00 +11°C° 0 mm 4 mps 744 mmHg 82%
    03:00 +10°C° 0 mm 4 mps 744 mmHg 83%
    04:00 +10°C° 0 mm 4 mps 744 mmHg 83%
    05:00 +10°C° 0 mm 4 mps 744 mmHg 83%
    06:00 +10°C° 0 mm 4 mps 743 mmHg 84%
    07:00 +9°C° 0 mm 5 mps 743 mmHg 81%
    08:00 +10°C° 0 mm 5 mps 743 mmHg 79%
    09:00 +10°C° 0 mm 6 mps 742 mmHg 77%
    10:00 +11°C° 0 mm 6 mps 742 mmHg 73%
    11:00 +13°C° 0 mm 6 mps 742 mmHg 69%
    12:00 +14°C° 0 mm 6 mps 742 mmHg 65%
    13:00 +15°C° 0 mm 6 mps 741 mmHg 65%
    14:00 +15°C° 0 mm 6 mps 741 mmHg 64%
    15:00 +15°C° 0 mm 6 mps 740 mmHg 64%
    16:00 +15°C° 0 mm 5 mps 740 mmHg 68%
    17:00 +14°C° 0 mm 5 mps 740 mmHg 73%
    18:00 +13°C° 0 mm 4 mps 739 mmHg 78%
    19:00 +13°C° 0 mm 4 mps 739 mmHg 80%
    20:00 +12°C° 0 mm 4 mps 739 mmHg 83%
    21:00 +12°C° 0 mm 4 mps 739 mmHg 86%
    22:00 +12°C° 0 mm 4 mps 739 mmHg 88%
    23:00 +12°C° 0 mm 4 mps 740 mmHg 90%
    Show more